Regional Weather Roundup
Issued by NWS

Home | Current Version | Previous Version | Graphics & Text | Print | Product List | Glossary On
Versions: 1 2 3 4 5 6 7 8 9 10 11 12 13 14 15 16 17 18 19 20 21 22 23 24 25 26 27
000
ASUS43 KDMX 301907
RWRIA

WEATHER ROUNDUP FOR IOWA
NATIONAL WEATHER SERVICE DES MOINES IA
200 PM CDT THU OCT 30 2014

NOTE: "FAIR" INDICATES FEW OR NO CLOUDS BELOW 12,000 FEET WITH NO
SIGNIFICANT WEATHER AND/OR OBSTRUCTIONS TO VISIBILITY.

* - THESE STATIONS ARE NOT NWS STATIONS...THUS NOT UNDER NWS
QUALITY CONTROL.  THEY ALSO DO NOT REPORT WEATHER SUCH
AS PRECIPITATION OR FOG.

IAZ001>003-012>014-020>022-031>034-043>046-302000-
   NORTHWEST IOWA

CITY           SKY/WX    TMP DP  RH WIND       PRES   REMARKS
CARROLL *      SUNNY     59  37  44 NW16      30.03S
CHEROKEE *     SUNNY     59  39  47 N15G21    30.06R
DENISON *      SUNNY     59  37  44 NW20      30.03S
LE MARS *      MOSUNNY   59  39  47 N18G29    30.09S
ORANGE CITY *  SUNNY     61  36  39 NW15G22   30.07S
SHELDON *      SUNNY     59  36  41 N13G21    30.06S
SIOUX CITY     SUNNY     60  42  51 NW23G30   30.09S
SPENCER        SUNNY     57  35  43 N22G29    30.06S
STORM LAKE *   SUNNY     59  36  41 N16       30.05S
$$

IAZ055>058-069>071-079>083-090>094-302000-
   SOUTHWEST IOWA

CITY           SKY/WX    TMP DP  RH WIND       PRES   REMARKS
ATLANTIC *     SUNNY     61  37  41 N20G26    30.02S
AUDUBON *      SUNNY     61  32  33 NW14G20   30.04S
CLARINDA *     SUNNY     63  43  48 NW16G28   30.04S
COUNCIL BLFS * SUNNY     63  43  48 NW17G29   30.05S
CRESTON *      MOSUNNY   59  41  51 N12G18    30.01S
HARLAN  *      SUNNY     61  37  41 NW20G28   30.07S
LAMONI         SUNNY     61  42  49 NW6       29.99F
RED OAK *      SUNNY     63  39  42 NW15G26   30.04S
SHENANDOAH *   SUNNY     64  41  42 N18G26    30.05S HAZE
$$

IAZ047>049-059>061-072>074-084-302000-
   CENTRAL IOWA

CITY           SKY/WX    TMP DP  RH WIND       PRES   REMARKS
AMES           SUNNY     57  38  48 CALM      30.01F
ANKENY *       PTSUNNY   59  39  47 NW7       30.01F
CHARITON *     SUNNY     59  39  47 VRB3      29.99F
DES MOINES     MOSUNNY   62  38  40 N9        30.01S
GRINNELL*      PTSUNNY   59  36  41 E5        30.01F
KNOXVILLE *    PTSUNNY   59  37  44 VRB5      29.98F
MARSHALLTOWN   PTSUNNY   58  34  40 VRB6      30.01F
PELLA *        SUNNY     61  41  48 NE3       30.01S
PERRY *          N/A     59  37  44 NW9       30.01F
$$

IAZ004>006-015-016-023>025-035-036-302000-
   NORTH CENTRAL IOWA

CITY           SKY/WX    TMP DP  RH WIND       PRES   REMARKS
ALGONA *       SUNNY     54  37  54 N8        30.05S
CLARION *      CLOUDY    55  37  50 VRB6      30.03F
ESTHERVILLE    SUNNY     55  35  47 N13       30.06R
FORT DODGE *   SUNNY     55  37  50 NW5       30.04F
MASON CITY     CLOUDY    54  38  54 N5        30.06S
FOREST CITY *  CLOUDY    50  37  62 CALM      30.05S
IOWA FALLS *   CLOUDY    57  36  44 SE3       30.03S
$$

IAZ007>011-017>019-026>030-037>042-050>054-066-302000-
   NORTHEAST IOWA

CITY           SKY/WX    TMP DP  RH WIND       PRES   REMARKS
CEDAR RAPIDS   MOSUNNY   55  38  52 SE8       30.03F
CHARLES CITY * CLOUDY    50  37  62 CALM      30.06S
CLINTON *      PTSUNNY   50  36  57 S8        30.08F
DECORAH *      CLOUDY    46  37  71 CALM      30.05F
DUBUQUE        CLOUDY    48  37  65 VRB3      30.06F
MONTICELLO *   PTSUNNY   52  37  58 S7        30.05F
OELWEIN *      PTSUNNY   52  37  58 CALM      30.05F
WATERLOO       CLOUDY    54  36  50 CALM      30.04S
$$

IAZ064-065-067-068-078-302000-
   EAST CENTRAL IOWA

CITY           SKY/WX    TMP DP  RH WIND       PRES   REMARKS
DAVENPORT      CLOUDY    49  38  65 S9        30.05F
IOWA CITY      MOSUNNY   54  39  57 SE10      30.04F
MT. PLEASANT * SUNNY     57  37  47 SE12      29.99F
MUSCATINE *    MOSUNNY   54  37  54 SE12      30.03F
QUAD CITIES    CLOUDY    50  37  61 S7        30.05F
$$

IAZ062-063-075>077-085>089-095>099-302000-
   SOUTHEAST IOWA

CITY           SKY/WX    TMP DP  RH WIND       PRES   REMARKS
BURLINGTON     PTSUNNY   52  39  61 SE8       30.01F
FAIRFIELD *    CLOUDY    57  37  47 S7        29.99F
FORT MADISON * MOSUNNY   57  41  54 SE7       30.01F
KEOKUK *       SUNNY     57  41  54 E9        30.00F
OSKALOOSA *    PTSUNNY   59  37  44 CALM      29.99F
CENTERVILLE *  SUNNY     59  39  47 CALM      29.99F
OTTUMWA        SUNNY     60  38  43 CALM      29.99F
WASHINGTON *   MOSUNNY   57  36  44 SE10G16   30.01F
$$

ABBREVIATIONS USED IN REMARKS
   TC - TEMPERATURES IN CELSIUS
  WCI - WIND CHILL INDEX
   HX - HEAT INDEX
  VSB - VISIBILITY
$$




USA.gov is the U.S. government's official web portal to all federal, state and local government web resources and services.